FW7253 Weather Reports


Display with metric or nautical units.
time (UTC)temp
F
wind
direction
speed
MPH
gust
MPH
rain 1hr
in
rain 24hr
in
rain mn
in
humidity
%
barometer
mb
20260904094549 55 39 3.0 6.0 0.00 0.08 0.08 87 999.5
20260904094034 54 340 3.0 6.0 0.00 0.08 0.08 89 999.5
20260904093534 54 2 4.0 6.0 0.00 0.08 0.08 90 999.6
20260904093051 54 319 4.0 8.0 0.00 0.08 0.08 91 999.8
20260904092531 53 349 4.0 8.0 0.00 0.08 0.08 91 999.7
20260904092031 53 338 4.0 8.0 0.00 0.08 0.08 91 999.8
20260904091544 53 304 4.0 8.0 0.00 0.08 0.08 92 999.9
20260904091035 53 337 6.0 8.0 0.00 0.08 0.08 92 1000.0
20260904090535 53 334 4.0 7.0 0.00 0.08 0.08 92 999.8
20260904090053 52 335 5.0 10.0 0.00 0.08 0.08 92 999.8
20260904085531 52 342 6.0 10.0 0.00 0.08 0.08 92 1000.0
20260904085034 52 347 4.0 9.0 0.00 0.08 0.08 92 1000.0
20260904084548 52 323 4.0 9.0 0.00 0.08 0.08 92 999.8
20260904084030 52 354 6.0 9.0 0.00 0.08 0.08 92 999.8
20260904083532 52 310 4.0 9.0 0.00 0.08 0.08 92 999.9
20260904083053 53 347 5.0 9.0 0.00 0.08 0.08 92 999.7
20260904082533 53 327 4.0 10.0 0.00 0.08 0.08 91 999.7
20260904082032 53 328 4.0 10.0 0.00 0.08 0.08 91 999.7
20260904081551 53 341 6.0 10.0 0.00 0.08 0.08 91 999.7
20260904081033 53 329 4.0 6.0 0.00 0.08 0.08 91 999.7
20260904080533 53 359 3.0 8.0 0.00 0.08 0.08 91 999.7
20260904080053 53 349 4.0 8.0 0.00 0.08 0.08 91 999.8
20260904075534 53 323 4.0 8.0 0.00 0.08 0.08 91 999.7
20260904075032 53 20 4.0 7.0 0.00 0.08 0.08 91 999.8
20260904074546 53 316 3.0 7.0 0.00 0.08 0.08 92 999.8
20260904074033 52 358 3.0 6.0 0.00 0.08 0.08 92 999.8
20260904073533 52 4 4.0 7.0 0.00 0.08 0.08 92 999.8
20260904073056 52 328 4.0 7.0 0.00 0.08 0.08 92 999.8
20260904072534 52 38 4.0 7.0 0.00 0.08 0.08 92 999.9
20260904072033 52 16 2.0 5.0 0.00 0.08 0.08 92 1000.0
20260904071552 52 327 3.0 7.0 0.00 0.08 0.08 92 999.8
20260904071037 52 308 3.0 8.0 0.00 0.08 0.08 92 999.8
20260904070533 52 357 3.0 8.0 0.00 0.08 0.08 93 1000.0
20260904070049 51 328 4.0 8.0 0.00 0.08 0.08 93 1000.0
20260904065533 51 339 4.0 8.0 0.00 0.08 0.08 93 1000.0
20260904065032 51 338 4.0 6.0 0.00 0.08 0.08 93 1000.1
20260904064557 51 345 3.0 6.0 0.00 0.08 0.08 93 1000.1
20260904064033 51 326 4.0 7.0 0.00 0.08 0.08 93 1000.2
20260904063533 51 339 4.0 7.0 0.00 0.08 0.08 93 1000.2
20260904063052 51 341 4.0 7.0 0.00 0.08 0.08 93 1000.1
20260904062532 51 335 4.0 7.0 0.00 0.08 0.08 93 1000.2
20260904062034 51 10 4.0 7.0 0.00 0.08 0.08 93 1000.2
20260904061550 50 338 3.0 6.0 0.00 0.08 0.08 93 1000.4
20260904061033 50 343 3.0 6.0 0.00 0.08 0.08 93 1000.3
20260904060533 50 352 4.0 6.0 0.00 0.08 0.08 93 1000.4
20260904060047 50 22 4.0 6.0 0.00 0.08 0.08 93 1000.6
20260904055532 50 13 2.0 5.0 0.00 0.08 0.08 93 1000.7
20260904055032 50 349 3.0 5.0 0.00 0.08 0.08 93 1000.4
20260904054553 50 333 2.0 5.0 0.00 0.08 0.08 93 1000.6
20260904054032 50 331 2.0 6.0 0.00 0.08 0.08 93 1000.5
20260904053534 50 328 2.0 6.0 0.00 0.08 0.08 93 1000.5
20260904053051 50 38 3.0 7.0 0.00 0.08 0.08 93 1000.5
20260904052531 50 334 3.0 7.0 0.00 0.08 0.08 93 1000.5
20260904052034 50 360 3.0 5.0 0.00 0.08 0.08 93 1000.7
20260904051548 50 5 3.0 5.0 0.00 0.08 0.08 93 1000.6
20260904051030 50 354 3.0 5.0 0.00 0.08 0.08 93 1000.7
20260904050530 50 347 3.0 7.0 0.00 0.08 0.08 93 1000.7
20260904050056 50 347 4.0 7.0 0.00 0.08 0.08 93 1000.7
20260904045532 50 347 4.0 7.0 0.00 0.08 0.08 93 1000.7
20260904045032 50 345 4.0 7.0 0.00 0.08 0.08 93 1000.6
20260904044557 50 10 4.0 7.0 0.00 0.08 0.08 93 1000.8
20260904044034 50 336 3.0 7.0 0.00 0.08 0.08 93 1000.8
20260904043535 50 1 3.0 6.0 0.00 0.08 0.08 94 1000.8
20260904043046 50 9 3.0 5.0 0.00 0.08 0.08 93 1000.8
20260904042530 50 328 1.0 3.0 0.00 0.08 0.08 93 1000.8
20260904042035 50 13 1.0 6.0 0.00 0.08 0.08 93 1000.8
20260904041552 50 11 2.0 6.0 0.00 0.08 0.08 93 1000.7
20260904041033 50 358 3.0 6.0 0.00 0.08 0.08 94 1000.9
20260904040536 50 338 2.0 4.0 0.00 0.08 0.08 94 1000.9
20260904040057 50 338 2.0 4.0 0.00 0.08 0.08 94 1000.9
20260904035534 50 14 2.0 4.0 0.00 0.08 0.08 94 1000.9
20260904035032 50 336 1.0 3.0 0.00 0.08 0.08 93 1001.0
20260904034601 50 330 0.0 2.0 0.00 0.08 0.08 93 1000.9
20260904034033 50 0 0.0 1.0 0.00 0.08 0.08 93 1001.0
20260904033534 50 0 0.0 3.0 0.00 0.08 0.08 94 1001.1
20260904033055 50 0 0.0 3.0 0.00 0.08 0.08 93 1001.1
20260904032530 50 1 0.0 5.0 0.01 0.08 0.08 94 1001.2
20260904032030 50 343 1.0 5.0 0.01 0.08 0.08 94 1001.2
20260904031552 50 359 3.0 5.0 0.01 0.08 0.08 94 1001.2
20260904031033 50 335 3.0 5.0 0.01 0.08 0.08 94 1001.2
20260904030534 50 334 3.0 5.0 0.02 0.08 0.08 94 1001.3
20260904030050 50 342 2.0 4.0 0.02 0.08 0.08 94 1001.4
20260904025536 50 328 2.0 4.0 0.03 0.08 0.08 94 1001.4
20260904025035 50 350 2.0 4.0 0.02 0.07 0.07 94 1001.5
20260904024550 50 359 2.0 4.0 0.03 0.07 0.07 94 1001.6
20260904024033 50 29 2.0 4.0 0.03 0.07 0.07 94 1001.6
20260904023536 50 4 1.0 3.0 0.03 0.07 0.07 94 1001.6
20260904023055 50 333 2.0 3.0 0.03 0.07 0.07 94 1001.8
20260904022532 50 353 2.0 4.0 0.03 0.07 0.07 94 1001.8
20260904022034 50 345 2.0 4.0 0.03 0.07 0.07 94 1001.9
20260904021552 50 330 3.0 4.0 0.03 0.07 0.07 94 1001.7
20260904021031 50 322 2.0 4.0 0.04 0.07 0.07 94 1001.8
20260904020533 50 7 1.0 4.0 0.03 0.06 0.06 94 1001.8
20260904020052 50 6 0.0 1.0 0.03 0.06 0.06 94 1001.8
20260904015530 50 0 0.0 1.0 0.03 0.05 0.05 93 1001.9
20260904015032 50 0 0.0 1.0 0.03 0.05 0.05 93 1002.1
20260904014557 50 0 0.0 0.0 0.03 0.04 0.04 93 1001.9
20260904014031 50 0 0.0 1.0 0.03 0.04 0.04 93 1002.1
20260904013535 50 0 0.0 1.0 0.03 0.04 0.04 93 1002.1
20260904013052 50 0 0.0 1.0 0.02 0.03 0.03 93 1002.2
20260904012536 50 0 0.0 0.0 0.02 0.03 0.03 93 1002.1
20260904012034 50 0 0.0 0.0 0.03 0.03 0.03 93 1002.1
20260904011556 50 0 0.0 0.0 0.03 0.03 0.03 93 1002.3
20260904011035 50 0 0.0 0.0 0.02 0.02 0.02 92 1002.3
20260904010538 50 0 0.0 0.0 0.02 0.02 0.02 92 1002.4
20260904010049 50 0 0.0 0.0 0.02 0.02 0.02 92 1002.4
20260904005533 51 0 0.0 4.0 0.02 0.02 0.02 92 1002.3
20260904005035 51 0 0.0 4.0 0.01 0.01 0.01 92 1002.3
20260904004552 51 342 2.0 4.0 0.01 0.01 0.01 92 1002.2
20260904004034 51 0 0.0 5.0 0.01 0.01 0.01 92 1002.3
20260904003538 51 0 0.0 5.0 0.01 0.01 0.01 92 1002.4
20260904003047 51 0 2.0 5.0 0.01 0.01 0.01 92 1002.6
20260904002531 51 331 0.0 4.0 0.00 0.00 0.00 92 1002.5
20260904002031 51 0 0.0 3.0 0.00 0.00 0.00 92 1002.6
20260904001546 51 0 0.0 4.0 0.00 0.00 0.00 92 1002.7
20260904001034 51 10 2.0 4.0 0.00 0.00 0.00 92 1002.7
20260904000534 51 358 2.0 4.0 0.00 0.00 0.00 93 1002.8
20260904000048 51 347 2.0 4.0 0.00 0.00 0.00 93 1002.9
20260903235534 51 339 2.0 4.0 0.00 0.00 0.00 93 1002.8
20260903235038 50 2 0.0 1.0 0.00 0.00 0.00 93 1002.9
20260903234548 50 0 0.0 0.0 0.00 0.00 0.00 93 1002.9
20260903234031 50 0 0.0 0.0 0.00 0.00 0.00 93 1002.9
20260903233535 50 0 0.0 0.0 0.00 0.00 0.00 93 1003.0
20260903233046 50 0 0.0 0.0 0.00 0.00 0.00 93 1003.1
20260903232530 50 0 0.0 0.0 0.00 0.00 0.00 92 1003.1
20260903232030 50 0 0.0 0.0 0.00 0.00 0.00 92 1003.0
20260903231604 50 0 0.0 0.0 0.00 0.00 0.00 92 1003.1
20260903231034 50 0 0.0 0.0 0.00 0.00 0.00 92 1003.1
20260903230532 51 0 0.0 0.0 0.00 0.00 0.00 92 1003.2
20260903230048 51 0 0.0 0.0 0.00 0.00 0.00 92 1003.2
20260903225534 51 0 0.0 0.0 0.00 0.00 0.00 92 1003.5
20260903225031 51 0 0.0 0.0 0.00 0.00 0.00 92 1003.3
20260903224545 51 0 0.0 0.0 0.00 0.00 0.00 92 1003.4
20260903224034 51 0 0.0 0.0 0.00 0.00 0.00 92 1003.5
20260903223531 51 0 0.0 0.0 0.00 0.00 0.00 92 1003.4
20260903223105 51 0 0.0 0.0 0.00 0.00 0.00 92 1003.3
20260903222530 51 0 0.0 0.0 0.00 0.00 0.00 91 1003.5
20260903222033 51 0 0.0 0.0 0.00 0.00 0.00 91 1003.5
20260903221550 51 0 0.0 0.0 0.00 0.00 0.00 91 1003.5
20260903221033 51 0 0.0 0.0 0.00 0.00 0.00 91 1003.5
20260903220534 51 0 0.0 0.0 0.00 0.00 0.00 91 1003.5
20260903215537 51 0 0.0 0.0 0.00 0.00 0.00 91 1003.6
20260903215030 51 0 0.0 0.0 0.00 0.00 0.00 91 1003.7
20260903214555 51 0 0.0 0.0 0.00 0.00 0.00 90 1003.7
20260903214033 51 0 0.0 0.0 0.00 0.00 0.00 90 1003.7
20260903213532 52 0 0.0 0.0 0.00 0.00 0.00 90 1003.7
20260903213051 51 0 0.0 0.0 0.00 0.00 0.00 90 1003.7
20260903212533 51 0 0.0 0.0 0.00 0.00 0.00 90 1003.8
20260903212035 51 0 0.0 0.0 0.00 0.00 0.00 89 1003.7
20260903211549 51 0 0.0 0.0 0.00 0.00 0.00 89 1003.8
20260903211033 51 0 0.0 0.0 0.00 0.00 0.00 89 1003.9
20260903210538 51 0 0.0 0.0 0.00 0.00 0.00 88 1003.9
20260903210046 52 0 0.0 0.0 0.00 0.00 0.00 88 1003.8
20260903205531 52 0 0.0 0.0 0.00 0.00 0.00 87 1003.8
20260903205031 52 0 0.0 0.0 0.00 0.00 0.00 87 1003.8
20260903204559 52 0 0.0 0.0 0.00 0.00 0.00 87 1003.9
20260903204030 52 0 0.0 0.0 0.00 0.00 0.00 86 1004.0
20260903203533 52 0 0.0 0.0 0.00 0.00 0.00 86 1004.0
20260903203048 52 0 0.0 0.0 0.00 0.00 0.00 86 1004.0
20260903202536 52 0 0.0 0.0 0.00 0.00 0.00 86 1004.0
20260903202034 52 0 0.0 0.0 0.00 0.00 0.00 85 1004.0
20260903201548 52 0 0.0 0.0 0.00 0.00 0.00 85 1004.0
20260903201037 52 0 0.0 0.0 0.00 0.00 0.00 85 1004.2
20260903200531 52 0 0.0 0.0 0.00 0.00 0.00 85 1004.4
20260903200054 52 0 0.0 0.0 0.00 0.00 0.00 84 1004.5
20260903195532 52 0 0.0 0.0 0.00 0.00 0.00 83 1004.5
20260903195034 53 0 0.0 0.0 0.00 0.00 0.00 83 1004.5
20260903194552 53 0 0.0 0.0 0.00 0.00 0.00 83 1004.5
20260903194033 53 0 0.0 0.0 0.00 0.00 0.00 82 1004.6
20260903193531 54 0 0.0 1.0 0.00 0.00 0.00 82 1004.5
20260903193048 54 0 0.0 1.0 0.00 0.00 0.00 82 1004.5
20260903192534 54 0 0.0 1.0 0.00 0.00 0.00 82 1004.5
20260903192033 54 94 0.0 1.0 0.00 0.00 0.00 82 1004.5
20260903191601 54 94 0.0 2.0 0.00 0.00 0.00 81 1004.5
20260903191032 54 0 0.0 2.0 0.00 0.00 0.00 81 1004.6
20260903190532 54 158 0.0 2.0 0.00 0.00 0.00 81 1004.4
20260903190053 54 160 0.0 2.0 0.00 0.00 0.00 80 1004.5
20260903185532 54 0 0.0 1.0 0.00 0.00 0.00 80 1004.5
20260903185032 54 158 0.0 1.0 0.00 0.00 0.00 79 1004.6
20260903184552 54 0 0.0 1.0 0.00 0.00 0.00 79 1004.7
20260903184032 54 0 0.0 1.0 0.00 0.00 0.00 78 1004.8
20260903183534 54 0 0.0 1.0 0.00 0.00 0.00 78 1004.8
20260903183108 54 91 0.0 1.0 0.00 0.00 0.00 77 1004.8
20260903182532 54 0 0.0 0.0 0.00 0.00 0.00 77 1004.8
20260903182033 54 0 0.0 0.0 0.00 0.00 0.00 76 1004.8
20260903181547 55 0 0.0 0.0 0.00 0.00 0.00 74 1004.9
20260903181031 55 0 0.0 1.0 0.00 0.00 0.00 74 1004.8
20260903180532 55 0 0.0 2.0 0.00 0.00 0.00 73 1004.9
20260903180054 55 0 0.0 2.0 0.00 0.00 0.00 72 1004.9
20260903175532 55 0 0.0 2.0 0.00 0.00 0.00 71 1005.0
20260903175034 56 160 0.0 2.0 0.00 0.00 0.00 70 1005.0
20260903174548 56 147 1.0 2.0 0.00 0.00 0.00 70 1005.0
20260903174032 56 176 0.0 2.0 0.00 0.00 0.00 70 1004.9
20260903173531 56 161 0.0 1.0 0.00 0.00 0.00 69 1004.9
20260903173107 56 0 0.0 1.0 0.00 0.00 0.00 68 1004.9
20260903172532 56 0 0.0 2.0 0.00 0.00 0.00 68 1004.9
20260903172031 56 0 0.0 4.0 0.00 0.00 0.00 66 1004.9
20260903171600 56 193 1.0 4.0 0.00 0.00 0.00 66 1004.9
20260903171032 57 161 1.0 4.0 0.00 0.00 0.00 65 1004.9
20260903170533 57 198 0.0 2.0 0.00 0.00 0.00 64 1004.9
20260903170048 57 0 0.0 2.0 0.00 0.00 0.00 64 1004.9
20260903165532 57 186 0.0 4.0 0.00 0.00 0.00 64 1005.0
20260903165033 57 0 0.0 4.0 0.00 0.00 0.00 63 1005.1
20260903164557 57 122 1.0 4.0 0.00 0.00 0.00 63 1005.1
20260903164032 57 209 1.0 4.0 0.00 0.00 0.00 63 1005.2
20260903163531 57 173 2.0 6.0 0.00 0.00 0.00 63 1005.2
20260903163052 58 153 0.0 6.0 0.00 0.00 0.00 62 1005.2
20260903162532 58 157 2.0 6.0 0.00 0.00 0.00 62 1005.2
20260903162031 58 164 1.0 6.0 0.00 0.00 0.00 62 1005.2
20260903161606 58 138 2.0 6.0 0.00 0.00 0.00 62 1005.3
20260903161034 58 155 2.0 5.0 0.00 0.00 0.00 61 1005.4
20260903160533 58 155 2.0 8.0 0.00 0.00 0.00 62 1005.5
20260903160055 58 160 4.0 8.0 0.00 0.00 0.00 61 1005.3
20260903155536 58 211 4.0 8.0 0.00 0.00 0.00 61 1005.4
20260903155031 59 150 2.0 7.0 0.00 0.00 0.00 62 1005.5
20260903154555 59 176 2.0 7.0 0.00 0.00 0.00 61 1005.5
20260903154032 59 152 4.0 11.0 0.00 0.00 0.00 60 1005.6
20260903153530 59 167 5.0 11.0 0.00 0.00 0.00 59 1005.6
20260903153059 59 169 6.0 9.0 0.00 0.00 0.00 59 1005.7
20260903152532 59 165 4.0 7.0 0.00 0.00 0.00 60 1005.7
20260903152032 60 148 3.0 7.0 0.00 0.00 0.00 60 1005.6
20260903151547 60 148 1.0 9.0 0.00 0.00 0.00 60 1005.5
20260903151034 60 153 3.0 9.0 0.00 0.00 0.00 60 1005.6
20260903150534 60 122 2.0 9.0 0.00 0.00 0.00 61 1005.7
20260903150054 60 160 3.0 9.0 0.00 0.00 0.00 59 1005.7
20260903145534 60 150 4.0 10.0 0.00 0.00 0.00 59 1005.7
20260903145033 61 122 3.0 10.0 0.00 0.00 0.00 59 1005.8
20260903144550 61 124 2.0 8.0 0.00 0.00 0.00 59 1005.8
20260903144032 61 170 4.0 10.0 0.00 0.00 0.00 58 1005.6
20260903143532 61 80 4.0 11.0 0.00 0.00 0.00 59 1005.6
20260903143046 61 91 6.0 11.0 0.00 0.00 0.00 57 1005.7
20260903142536 61 97 6.0 10.0 0.00 0.00 0.00 57 1005.8
20260903142032 62 145 4.0 9.0 0.00 0.00 0.00 57 1005.8
20260903141546 62 221 3.0 10.0 0.00 0.00 0.00 56 1005.7
20260903141031 62 69 3.0 10.0 0.00 0.00 0.00 54 1005.6
20260903140534 63 72 5.0 10.0 0.00 0.00 0.00 54 1005.6
20260903140047 63 155 2.0 7.0 0.00 0.00 0.00 54 1005.7
20260903135533 63 167 3.0 7.0 0.00 0.00 0.00 54 1005.6
20260903135031 65 187 3.0 9.0 0.00 0.00 0.00 52 1005.8
20260903134604 65 169 4.0 10.0 0.00 0.00 0.00 52 1005.6
20260903134030 65 101 4.0 10.0 0.00 0.00 0.00 49 1005.7
20260903133532 65 208 6.0 10.0 0.00 0.00 0.00 51 1005.7
20260903133051 65 68 4.0 9.0 0.00 0.00 0.00 49 1005.7
20260903132532 65 92 2.0 8.0 0.00 0.00 0.00 49 1005.8
20260903132031 65 134 3.0 7.0 0.00 0.00 0.00 51 1005.9
20260903131548 65 193 2.0 6.0 0.00 0.00 0.00 51 1005.9
20260903131032 65 117 3.0 11.0 0.00 0.00 0.00 50 1006.0
20260903130533 65 165 2.0 11.0 0.00 0.00 0.00 50 1006.0
20260903130047 65 122 3.0 9.0 0.00 0.00 0.00 49 1005.9
20260903125531 66 175 4.0 10.0 0.00 0.00 0.00 48 1006.0
20260903125032 66 112 4.0 10.0 0.00 0.00 0.00 49 1006.1
20260903124559 66 174 6.0 10.0 0.00 0.00 0.00 48 1006.2
20260903124031 65 180 2.0 7.0 0.00 0.00 0.00 50 1006.1
20260903123532 65 148 3.0 9.0 0.00 0.00 0.00 51 1006.1
20260903123048 64 140 3.0 9.0 0.00 0.00 0.00 50 1006.2
20260903122535 64 162 5.0 9.0 0.00 0.00 0.00 50 1006.3
20260903122032 63 124 3.0 8.0 0.00 0.00 0.00 51 1006.4
20260903121552 63 123 5.0 8.0 0.00 0.00 0.00 49 1006.5
20260903121035 64 155 3.0 8.0 0.00 0.00 0.00 51 1006.6
20260903120531 63 185 3.0 8.0 0.00 0.00 0.00 50 1006.5
20260903120056 64 117 2.0 5.0 0.00 0.00 0.00 49 1006.5
20260903115537 64 240 1.0 7.0 0.00 0.00 0.00 47 1006.5
20260903115031 64 96 2.0 7.0 0.00 0.00 0.00 49 1006.6
20260903114549 64 153 3.0 7.0 0.00 0.00 0.00 48 1006.7
20260903114030 64 120 4.0 7.0 0.00 0.00 0.00 48 1006.5
20260903113533 65 171 3.0 8.0 0.00 0.00 0.00 46 1006.6
20260903113047 64 113 3.0 9.0 0.00 0.00 0.00 51 1006.6
20260903112532 64 0 1.0 9.0 0.00 0.00 0.00 49 1006.6
20260903112033 64 218 4.0 9.0 0.00 0.00 0.00 49 1006.7
20260903111545 64 117 1.0 8.0 0.00 0.00 0.00 50 1006.8
20260903111032 63 184 4.0 8.0 0.00 0.00 0.00 50 1006.7
20260903110532 64 151 3.0 8.0 0.00 0.00 0.00 51 1006.8
20260903110050 64 216 3.0 8.0 0.00 0.00 0.00 52 1006.8
20260903105532 63 134 2.0 6.0 0.00 0.00 0.00 51 1006.9
20260903105033 62 128 3.0 7.0 0.00 0.00 0.00 52 1006.9
20260903104547 62 176 2.0 7.0 0.00 0.00 0.00 51 1007.0
20260903104034 63 136 4.0 7.0 0.00 0.00 0.00 51 1007.0
20260903103535 63 194 3.0 9.0 0.00 0.00 0.00 53 1007.0
20260903103048 63 223 4.0 9.0 0.00 0.00 0.00 51 1007.0
20260903102530 64 196 5.0 9.0 0.00 0.00 0.00 51 1007.0
20260903102032 63 170 2.0 4.0 0.00 0.00 0.00 52 1007.0
20260903101547 63 85 2.0 4.0 0.00 0.00 0.00 51 1007.1
20260903101031 62 114 1.0 3.0 0.00 0.00 0.00 57 1007.1
20260903100532 62 119 1.0 2.0 0.00 0.00 0.00 55 1007.2
20260903100046 62 115 1.0 3.0 0.00 0.00 0.00 53 1007.3
20260903095535 62 103 1.0 3.0 0.00 0.00 0.00 54 1007.2
20260903095031 62 126 1.0 4.0 0.00 0.00 0.00 55 1007.3